Regional Weather Roundup
Issued by NWS

Home | Current Version | Previous Version | Graphics & Text | Print | Product List | Glossary On
Versions: 1 2 3 4 5 6 7 8 9 10 11 12 13 14 15 16 17 18 19 20 21 22 23 24 25 26 27 28 29 30 31 32 33 34 35 36 37 38 39 40 41 42 43 44 45 46 47 48 49 50
000
ASUS43 KOAX 251702
RWRNE

WEATHER ROUNDUP FOR NEBRASKA
NATIONAL WEATHER SERVICE OMAHA NE
1200 PM CDT SUN SEP 25 2016

NOTES: SATELLITE DATA IS BEING USED TO AUGMENT CLOUD COVER ABOVE
       12000 FEET.
       "FAIR" INDICATES FEW OR NO CLOUDS BELOW 12,000 FEET WITH NO
       SIGNIFICANT WEATHER AND/OR OBSTRUCTIONS TO VISIBILITY.

  * THESE STATIONS DO NOT REPORT WEATHER SUCH AS RAIN...SNOW OR FOG.

NEZ001>004-019>022-054>056-251800-
NEBRASKA PANHANDLE

CITY           SKY/WX    TMP DP  RH WIND       PRES   REMARKS
SCOTTSBLUFF    CLOUDY    61  38  42 NW17      30.43F
ALLIANCE       SUNNY     59  35  40 NW24G32   30.38S
CHADRON        SUNNY     59  34  39 NW23G30   30.38F
KIMBALL        MOSUNNY   57  37  47 NW14G24   30.46F
SIDNEY         LGT RAIN  61  37  41 NW25G35   30.43S
$$

NEZ057>060-069>072-079>082-251800-
SOUTHWEST NEBRASKA

CITY           SKY/WX    TMP DP  RH WIND       PRES   REMARKS
NORTH PLATTE   SUNNY     68  38  33 NW25G35   30.31S
IMPERIAL       SUNNY     64  36  35 NW26G33   30.36R
LEXINGTON      SUNNY     66  41  40 NW22G29   30.28F
MCCOOK         SUNNY     69  38  32 NW22G28   30.32S
OGALLALA       SUNNY     65  33  30 NW26G35   30.36S
$$

NEZ005>010-023>029-035>040-094-251800-
NORTH CENTRAL NEBRASKA

CITY           SKY/WX    TMP DP  RH WIND       PRES   REMARKS
VALENTINE      SUNNY     61  31  32 NW28G36   30.26F
AINSWORTH      SUNNY     61  35  37 NW26G36   30.25R
BROKEN BOW     SUNNY     64  37  36 NW29G37   30.26R
O`NEILL        MOSUNNY   65  39  38 NW28G39   30.19R
ORD            SUNNY     65  40  39 NW25G37   30.21S
THEDFORD       SUNNY     64  34  32 NW25G33   30.30S
$$

NEZ041-046>049-061>064-073>077-083>087-251800-
SOUTH CENTRAL NEBRASKA

CITY           SKY/WX    TMP DP  RH WIND       PRES   REMARKS
GRAND ISLAND   SUNNY     67  45  45 NW18G29   30.23S
AURORA         SUNNY     66  44  44 NW16G25   30.22S
HASTINGS       SUNNY     66  44  45 NW20G30   30.25S
HEBRON         MOSUNNY   68  46  44 NW14G22   30.21S
HOLDREGE       SUNNY     66  38  36 NW18G30   30.28S
KEARNEY *      SUNNY     66  37  34 NW21G31   30.25F
YORK           SUNNY     66  45  45 NW23G29   30.20S
$$

NEZ011>018-030>034-042>045-251800-
NORTHEAST NEBRASKA

CITY           SKY/WX    TMP DP  RH WIND       PRES   REMARKS
NORFOLK        MOSUNNY   66  44  45 NW22G33   30.15R
ALBION         MOSUNNY   65  45  47 NW20G32   30.19S
BLAIR          CLOUDY    65  49  56 W13G21    30.13S
FREMONT        MOSUNNY   67  48  50 W22G30    30.15R
TEKAMAH        MOSUNNY   69  48  47 NW21G29   30.12S
WAYNE          CLOUDY    62  47  57 NW17G29   30.14R
$$

NEZ050>053-065>068-078-088>093-251800-
SOUTHEAST NEBRASKA

CITY           SKY/WX    TMP DP  RH WIND       PRES   REMARKS
LINCOLN        PTSUNNY   69  47  45 NW18G31   30.17F
OMAHA EPPLEY   CLOUDY    66  51  58 NW10      30.13F
BEATRICE       CLOUDY    64  50  59 N12G18    30.19F
FALLS CITY     CLOUDY    65  51  60 N12G18    30.15F
NEBRASKA CITY  CLOUDY    62  42  48 NW12      30.16F
PLATTSMOUTH    CLOUDY    64  47  55 W9        30.16S
$$

NEZ044-045-051>053-067-251800-
OMAHA AREA

CITY           SKY/WX    TMP DP  RH WIND       PRES   REMARKS
OMAHA EPPLEY   CLOUDY    66  51  58 NW10      30.13F
BLAIR          CLOUDY    65  49  56 W13G21    30.13S
FREMONT        MOSUNNY   67  48  50 W22G30    30.15R
MILLARD        CLOUDY    66  51  58 W12G17    30.14F
OFFUTT AFB     CLOUDY    64  51  64 W9        30.14S
PLATTSMOUTH    CLOUDY    64  47  55 W9        30.16S
WAHOO          FAIR      69  45  42 NW15G26   30.15S
$$



USA.gov is the U.S. government's official web portal to all federal, state and local government web resources and services.